Погода в Пильшине

Россия / Брянская область     53°04′26″N   33°56′38″E
темп.,
°C
ветер,
м/с
пор.,
м/с
влажн.,
%
обл.,
%
осадки,
мм/ч
давл.,
гПа
погр.,
м
18 апреля, вс
вс1800:00+5ююз4791100 1.4 1017728
03:00+5ююз5793100 2.9 1017723
06:00+5ююв2693100 0.6 1017587
09:00+6в3584100 0.6 1017589
12:00+9всв457050 0.1 1018958
15:00+10св5564100 0.2 10181063
18:00+10св356490 0.1 1018468
21:00+6св359067 0.3 1019106
19 апреля, пн
пн1900:00+6ссв249329 0.1 1019134
03:00+4ссв369725 0.1 1019158
06:00+5ссв499588 0.0 1019349
09:00+7св5884100 0.0 1019742
12:00+8св5785100 0.1 1019644
15:00+9св6873100 0.1 10191057
18:00+8св6984100 0.0 1019702
21:00+6всв61084100 0.1 1019928
20 апреля, вт
вт2000:00+5св4987100 0.0 1018937
03:00+5св4784100 0.4 1017809
06:00+3св4897100 0.4 1016411
09:00+4св4996100 0.5 1015413
12:00+8св568298 0.0 1013690
15:00+10св6774100 0.1 10101022
18:00+7св61086100 0.1 1009743
21:00+5ссв61095100 0.1 1006544
21 апреля, ср
ср2100:00+4с61096100 0.9 1003665
03:00+2ссз61096100 1.4 1002511
06:00+2зсз61196100 0.3 1003643
09:00+3з61192100 0.4 1005946
12:00+6з71174100 0.1 10071232
15:00+9зюз71061100 0.4 10091739
18:00+8зюз5970100 0.2 10111032
21:00+5ююз4108432 0.3 1013201
22 апреля, чт
чт2200:00+5ююз5138492 0.0 1014376
03:00+4ююз5128780 0.1 1015337
06:00+3ю399367 0.1 1016184
09:00+9ююз477713 0.1 1016493
12:00+13ююз576318 0.6 10161279
15:00+14ююз6756100 2.4 10151603
18:00+13ююз586886 1.4 1015893
21:00+8ю49877 1.9 1015147